User: anonymous   Login
Location: Kaiser
(34.0939°N, 117.4889°W)
Time: 01:48:59
(UTC+00:00)
Language:

Cosmos 1980 Rocket - Orbit

View from above orbital plane
View from above orbital plane
View from above satellite
View from above satellite

Ground track
Ground track

The orbit data is extracted from the following two-line orbital elements,

1 19650U 88102B   21015.58451426  .00000030  00000-0  39703-4 0  9993
2 19650  71.0005 143.8415 0014919 342.4036  17.6568 14.15800805660904
Epoch (UTC): 15 January 2021 14:01:42
Eccentricity: 0.0014919
inclination: 71.0005°
perigee height: 829 km
apogee height: 850 km
right ascension of ascending node: 143.8415°
argument of perigee: 342.4036°
revolutions per day: 14.15800805
mean anomaly at epoch: 17.6568°
orbit number at epoch: 66090

The dashed part of the orbit path shows where the satellite is in the earth's shadow,  

DLR